Date,TemperatureHighF,TemperatureAvgF,TemperatureLowF,DewpointHighF,DewpointAvgF,DewpointLowF,HumidityHigh,HumidityAvg,HumidityLow,PressureMaxIn,PressureMinIn,WindSpeedMaxMPH,WindSpeedAvgMPH,GustSpeedMaxMPH,PrecipitationSumIn
2013-1-1,64.0,53.9,47.0,64.0,52.3,43.0,99,95,85,0.00,40.00,9,7,22,2.49
2013-1-2,47.0,43.0,40.0,43.0,38.6,36.0,88,85,81,0.00,40.00,7,5,16,0.02
2013-1-3,56.0,43.5,33.0,38.0,34.6,28.0,96,73,37,0.00,40.00,9,5,17,0.00
2013-1-4,48.0,44.4,41.0,38.0,35.9,33.0,83,72,61,0.00,40.00,8,5,14,0.01
2013-1-5,45.0,43.3,42.0,44.0,41.9,37.0,98,96,73,0.00,40.00,6,4,13,1.07
2013-1-6,59.0,46.8,38.0,46.0,42.1,37.0,98,86,50,0.00,40.00,8,6,17,0.05
2013-1-7,59.0,45.0,34.0,45.0,39.0,34.0,98,82,48,0.00,40.00,6,5,12,0.01
2013-1-8,62.0,53.5,46.0,62.0,51.8,42.0,99,94,83,0.00,40.00,9,6,25,0.55
2013-1-9,65.0,63.0,60.0,65.0,63.0,60.0,99,99,99,0.00,40.00,13,6,24,2.75
2013-1-10,69.0,62.4,53.0,65.0,59.5,52.0,99,91,65,0.00,40.00,10,5,22,1.03
2013-1-11,76.0,59.9,44.0,62.0,52.4,44.0,99,80,45,0.00,40.00,7,4,16,0.07
2013-1-12,75.0,71.6,63.0,71.0,69.1,62.0,99,92,80,0.00,40.00,12,9,25,0.06
2013-1-13,72.0,52.0,43.0,69.0,49.7,40.0,97,91,86,0.00,40.00,11,8,26,0.61
2013-1-14,44.0,40.2,37.0,42.0,38.0,36.0,96,91,82,0.00,40.00,10,7,19,0.35
2013-1-15,38.0,36.0,34.0,36.0,34.2,32.0,97,94,89,0.00,40.00,8,6,17,0.08
2013-1-16,53.0,39.4,33.0,36.0,32.7,28.0,94,78,46,0.00,40.00,8,5,17,0.01
2013-1-17,62.0,41.3,28.0,39.0,31.1,27.0,95,73,30,0.00,40.00,8,3,14,0.00
2013-1-18,63.0,43.9,32.0,39.0,32.5,24.0,97,72,22,0.00,40.00,7,4,13,0.00
2013-1-19,66.0,45.0,30.0,46.0,38.6,29.0,97,82,45,0.00,40.00,5,3,11,0.00
2013-1-20,70.0,50.4,35.0,53.0,43.2,34.0,98,81,40,0.00,40.00,4,1,7,0.00
2013-1-21,70.0,51.4,39.0,53.0,45.3,38.0,98,83,47,0.00,40.00,5,1,13,0.00
2013-1-22,70.0,52.1,38.0,48.0,43.4,36.0,95,76,44,0.00,40.00,6,4,12,0.00
2013-1-23,74.0,58.2,44.0,60.0,51.3,43.0,98,81,46,0.00,40.00,8,5,18,0.00
2013-1-24,73.0,60.7,50.0,64.0,57.5,49.0,99,90,70,0.00,40.00,9,5,16,0.00
2013-1-25,77.0,65.1,56.0,65.0,58.8,56.0,99,83,50,0.00,40.00,10,5,19,0.00
2013-1-26,77.0,63.9,57.0,65.0,58.8,54.0,99,86,47,0.00,40.00,6,4,12,0.00
2013-1-27,76.0,64.4,53.0,63.0,59.2,52.0,99,85,60,0.00,40.00,11,7,21,0.02
2013-1-28,78.0,69.6,65.0,66.0,64.1,62.0,95,83,62,0.00,40.00,11,8,23,0.01
2013-1-29,76.0,71.6,69.0,70.0,67.7,66.0,94,88,74,0.00,40.00,15,11,30,0.22
2013-1-30,72.0,53.5,38.0,69.0,37.9,27.0,97,60,34,0.00,40.00,18,10,36,1.02
2013-1-31,66.0,54.1,30.0,41.0,29.2,22.0,96,45,20,0.00,40.00,7,6,16,0.00
2013-2-1,70.0,53.8,42.0,45.0,39.7,33.0,92,65,26,0.00,40.00,9,4,15,0.00
2013-2-2,74.0,56.0,40.0,53.0,47.1,39.0,97,76,39,0.00,40.00,8,5,16,0.00
2013-2-3,73.0,55.9,44.0,53.0,40.8,28.0,97,67,19,0.00,40.00,6,4,15,0.00
2013-2-4,65.0,54.5,44.0,61.0,52.0,42.0,98,92,75,0.00,40.00,6,3,12,0.04
2013-2-5,79.0,64.3,59.0,65.0,61.0,58.0,99,90,56,0.00,40.00,6,3,11,0.18
2013-2-6,63.0,59.4,56.0,62.0,58.5,55.0,99,98,95,0.00,40.00,9,4,17,0.78
2013-2-7,69.0,60.2,55.0,62.0,58.0,55.0,99,92,77,0.00,40.00,5,3,11,0.19
2013-2-8,64.0,58.5,50.0,59.0,53.5,48.0,99,84,64,0.00,40.00,8,6,19,0.00
2013-2-9,65.0,54.4,44.0,61.0,51.4,43.0,98,90,79,0.00,40.00,9,6,21,0.00
2013-2-10,72.0,64.5,60.0,69.0,62.5,58.0,98,93,85,0.00,40.00,11,5,31,0.47
2013-2-11,60.0,53.5,51.0,59.0,52.0,49.0,98,95,85,0.00,40.00,10,7,20,0.85
2013-2-12,60.0,55.0,52.0,59.0,54.0,51.0,99,96,93,0.00,40.00,9,5,15,0.27
2013-2-13,60.0,50.8,41.0,51.0,42.3,38.0,95,75,46,0.00,40.00,11,6,22,0.04
2013-2-14,66.0,48.3,33.0,43.0,37.4,32.0,98,72,32,0.00,40.00,5,4,9,0.00
2013-2-15,69.0,48.9,35.0,46.0,38.0,34.0,98,72,32,0.00,40.00,9,5,20,0.00
2013-2-16,60.0,46.1,35.0,34.0,27.2,20.0,91,52,26,0.00,40.00,11,6,22,0.00
2013-2-17,70.0,49.4,33.0,45.0,37.9,31.0,93,70,32,0.00,40.00,12,6,21,0.00
2013-2-18,70.0,61.5,47.0,63.0,55.8,45.0,96,82,62,0.00,40.00,17,8,32,1.88
2013-2-19,68.0,53.3,42.0,56.0,40.2,30.0,97,68,25,0.00,40.00,9,6,19,0.95
2013-2-20,61.0,53.1,46.0,40.0,35.0,23.0,72,52,28,0.00,40.00,11,7,21,0.00
2013-2-21,72.0,61.6,54.0,70.0,56.9,40.0,98,85,54,0.00,40.00,13,7,29,0.16
2013-2-22,64.0,56.3,52.0,58.0,51.7,49.0,99,85,62,0.00,40.00,7,6,15,0.01
2013-2-23,71.0,55.1,46.0,49.0,45.5,43.0,91,73,39,0.00,40.00,8,5,16,0.01
2013-2-24,71.0,55.4,40.0,50.0,45.3,39.0,96,72,41,0.00,40.00,9,5,15,0.00
2013-2-25,75.0,63.2,49.0,69.0,50.1,28.0,97,68,23,0.00,40.00,18,7,31,0.11
2013-2-26,65.0,50.3,44.0,41.0,34.0,29.0,80,55,32,0.00,40.00,19,9,34,0.01
2013-2-27,74.0,53.7,38.0,47.0,37.7,28.0,96,61,25,0.00,40.00,16,6,30,0.00
2013-2-28,56.0,45.8,38.0,34.0,30.0,28.0,76,55,36,0.00,40.00,8,5,19,0.00
2013-3-1,64.0,47.3,35.0,35.0,29.6,24.0,83,56,25,0.00,40.00,10,6,23,0.00
2013-3-2,53.0,41.7,33.0,33.0,27.1,22.0,86,59,32,0.00,40.00,11,6,26,0.00
2013-3-3,67.0,43.7,28.0,38.0,28.8,21.0,93,63,21,0.00,40.00,9,5,17,0.00
2013-3-4,75.0,60.8,44.0,60.0,51.8,38.0,97,74,50,0.00,40.00,15,9,32,0.00
2013-3-5,71.0,62.5,45.0,61.0,43.1,28.0,94,55,21,0.00,40.00,12,7,33,0.00
2013-3-6,69.0,48.7,34.0,37.0,28.1,22.0,79,50,17,0.00,40.00,8,5,16,0.00
2013-3-7,71.0,51.6,36.0,40.0,34.6,32.0,89,58,25,0.00,40.00,6,4,11,0.00
2013-3-8,75.0,57.0,40.0,54.0,45.7,38.0,92,69,43,0.00,40.00,8,5,15,0.00
2013-3-9,72.0,62.8,55.0,62.0,56.3,46.0,95,80,59,0.00,40.00,13,7,28,0.00
2013-3-10,69.0,60.4,51.0,62.0,57.3,44.0,97,90,76,0.00,40.00,13,6,29,0.24
2013-3-11,62.0,49.9,40.0,44.0,34.0,29.0,84,58,29,0.00,40.00,10,6,22,0.01
2013-3-12,73.0,50.9,32.0,40.0,32.5,28.0,96,59,20,0.00,40.00,6,4,13,0.00
2013-3-13,74.0,54.6,38.0,41.0,32.9,25.0,91,53,17,0.00,40.00,9,5,17,0.00
2013-3-14,75.0,54.9,38.0,42.0,35.9,30.0,89,56,22,0.00,40.00,8,5,19,0.00
2013-3-15,79.0,59.8,41.0,57.0,47.5,39.0,95,69,34,0.00,40.00,12,6,22,0.00
2013-3-16,79.0,65.2,52.0,62.0,55.5,51.0,98,75,41,0.00,40.00,11,7,24,0.00
2013-3-17,79.0,65.8,56.0,67.0,60.3,55.0,98,85,54,0.00,40.00,13,6,24,0.00
2013-3-18,88.0,74.2,66.0,68.0,65.1,61.0,97,77,41,0.00,40.00,10,6,20,0.00
2013-3-19,81.0,67.4,51.0,61.0,48.0,40.0,76,52,31,0.00,40.00,9,6,19,0.00
2013-3-20,75.0,60.9,50.0,52.0,41.2,31.0,97,54,21,0.00,40.00,14,8,27,0.21
2013-3-21,71.0,58.6,47.0,51.0,40.9,32.0,75,55,26,0.00,40.00,13,7,26,0.11
2013-3-22,83.0,70.1,61.0,68.0,63.0,51.0,95,79,57,0.00,40.00,11,6,21,0.00
2013-3-23,71.0,68.5,64.0,68.0,66.2,59.0,98,93,84,0.00,40.00,6,4,14,0.01
2013-3-24,64.0,57.1,43.0,60.0,42.7,27.0,96,63,28,0.00,40.00,15,8,31,0.01
2013-3-25,62.0,46.8,34.0,33.0,25.5,18.0,88,49,19,0.00,40.00,10,7,24,0.01
2013-3-26,61.0,45.2,30.0,30.0,24.0,19.0,81,48,20,0.00,40.00,10,5,25,0.00
2013-3-27,70.0,47.0,32.0,36.0,30.3,27.0,86,60,24,0.00,40.00,7,5,14,0.00
2013-3-28,74.0,66.7,56.0,53.0,51.0,48.0,89,59,42,0.00,40.00,7,6,15,0.00
2013-3-29,79.0,62.7,52.0,59.0,54.8,51.0,97,79,45,0.00,40.00,8,6,17,0.00
2013-3-30,77.0,65.9,58.0,61.0,56.8,-99.9,98,81,50,0.00,40.00,11,6,22,0.00
2013-3-31,77.0,63.0,59.0,68.0,60.3,48.0,99,92,61,0.00,40.00,15,5,34,0.43
2013-4-1,83.0,66.6,56.0,65.0,58.5,55.0,99,79,42,0.00,40.00,7,4,12,0.06
2013-4-2,76.0,65.3,55.0,63.0,58.6,54.0,98,81,57,0.00,40.00,8,5,16,0.00
2013-4-3,65.0,54.0,48.0,63.0,52.0,47.0,97,93,85,0.00,40.00,19,8,35,0.92
2013-4-4,51.0,48.1,46.0,47.0,44.4,42.0,97,88,75,0.00,40.00,8,6,17,0.02
2013-4-5,77.0,58.5,42.0,49.0,44.5,41.0,97,65,32,0.00,40.00,7,4,17,0.01
2013-4-6,74.0,59.5,49.0,57.0,51.2,47.0,97,77,47,0.00,40.00,12,6,26,0.00
2013-4-7,79.0,66.4,56.0,62.0,58.3,54.0,97,78,48,0.00,40.00,10,6,21,0.00
2013-4-8,80.0,71.5,64.0,66.0,63.3,60.0,95,77,51,0.00,40.00,13,9,26,0.00
2013-4-9,82.0,73.4,67.0,70.0,67.2,64.0,93,81,59,0.00,40.00,14,10,30,0.00
2013-4-10,80.0,71.6,52.0,71.0,66.4,51.0,97,85,71,0.00,40.00,13,9,26,0.57
2013-4-11,69.0,53.0,46.0,51.0,46.8,45.0,97,83,43,0.00,40.00,11,6,28,4.09
2013-4-12,80.0,58.9,42.0,53.0,44.9,41.0,98,68,26,0.00,40.00,6,3,12,0.12
2013-4-13,82.0,63.9,47.0,57.0,49.4,44.0,96,66,27,0.00,40.00,9,5,17,0.00
2013-4-14,81.0,66.3,58.0,63.0,58.6,55.0,91,78,49,0.00,40.00,8,4,13,0.00
2013-4-15,87.0,72.7,61.0,70.0,65.8,60.0,99,82,51,0.00,40.00,11,6,21,0.00
2013-4-16,82.0,75.6,72.0,73.0,71.6,70.0,97,88,71,0.00,40.00,12,8,24,0.01
2013-4-17,81.0,76.3,73.0,74.0,71.2,70.0,94,84,71,0.00,40.00,15,8,29,0.01
2013-4-18,79.0,69.2,51.0,72.0,64.5,47.0,95,85,74,0.00,40.00,13,10,27,0.25
2013-4-19,65.0,51.6,43.0,47.0,36.9,32.0,87,60,31,0.00,40.00,11,8,26,0.03
2013-4-20,74.0,54.2,37.0,47.0,37.5,31.0,96,62,22,0.00,40.00,9,5,18,0.00
2013-4-21,77.0,58.7,43.0,51.0,45.4,41.0,95,68,32,0.00,40.00,6,5,16,0.00
2013-4-22,81.0,63.9,47.0,57.0,50.5,45.0,94,68,35,0.00,40.00,7,4,15,0.00
2013-4-23,82.0,69.0,54.0,68.0,61.5,53.0,96,79,50,0.00,40.00,11,6,22,0.00
2013-4-24,71.0,62.1,50.0,68.0,54.1,47.0,96,77,51,0.00,40.00,12,7,29,0.97
2013-4-25,74.0,61.9,51.0,52.0,45.7,42.0,88,59,36,0.00,40.00,9,6,18,0.01
2013-4-26,79.0,67.9,59.0,67.0,58.8,45.0,93,73,54,0.00,40.00,10,5,20,0.00
2013-4-27,81.0,71.8,66.0,71.0,66.8,65.0,98,86,67,0.00,40.00,10,5,20,0.00
2013-4-28,82.0,71.4,65.0,66.0,63.9,60.0,97,80,48,0.00,40.00,8,4,15,0.00
2013-4-29,85.0,68.5,58.0,71.0,61.5,57.0,98,82,45,0.00,40.00,11,4,18,0.00
2013-4-30,84.0,72.3,62.0,71.0,66.5,61.0,98,84,55,0.00,40.00,7,5,17,0.29
2013-5-1,84.0,72.5,65.0,69.0,66.2,64.0,98,83,54,0.00,40.00,6,4,12,0.26
2013-5-2,76.0,67.3,55.0,66.0,62.1,50.0,98,84,68,0.00,40.00,10,6,27,0.01
2013-5-3,65.0,52.4,46.0,48.0,41.2,34.0,85,68,31,0.00,40.00,14,9,30,0.01
2013-5-4,80.0,60.3,40.0,45.0,39.2,36.0,96,54,21,0.00,40.00,13,6,25,0.00
2013-5-5,68.0,55.1,44.0,46.0,42.7,40.0,91,66,38,0.00,40.00,10,6,24,0.00
2013-5-6,79.0,59.3,45.0,55.0,48.8,43.0,96,73,38,0.00,40.00,7,4,16,0.00
2013-5-7,87.0,68.8,55.0,61.0,55.2,51.0,95,68,31,0.00,40.00,6,3,11,0.00
2013-5-8,83.0,68.5,55.0,65.0,59.0,54.0,97,75,44,0.00,40.00,10,5,19,0.00
2013-5-9,75.0,67.8,61.0,72.0,65.8,60.0,97,94,85,0.00,40.00,11,5,22,0.61
2013-5-10,76.0,68.2,66.0,68.0,63.9,-99.9,98,91,68,0.00,40.00,11,5,31,4.18
2013-5-11,83.0,71.1,63.0,72.0,63.6,-99.9,98,82,57,0.00,40.00,8,4,15,0.02
2013-5-12,80.0,68.2,58.0,64.0,58.7,54.0,97,75,49,0.00,40.00,10,6,17,0.00
2013-5-13,83.0,63.1,49.0,58.0,50.8,47.0,97,70,28,0.00,40.00,5,4,15,0.00
2013-5-14,85.0,67.9,52.0,66.0,54.4,42.0,97,68,24,0.00,40.00,10,5,19,0.00
2013-5-15,77.0,65.6,59.0,68.0,61.1,55.0,97,86,63,0.00,40.00,8,5,16,0.00
2013-5-16,84.0,64.2,65.0,69.0,41.4,-99.9,98,81,57,0.00,40.00,14,7,25,0.01
2013-5-17,87.0,74.7,69.0,72.0,60.7,-99.9,97,82,61,0.00,40.00,10,6,24,0.01
2013-5-18,89.0,78.7,72.0,73.0,70.6,69.0,96,78,54,0.00,40.00,9,6,19,0.00
2013-5-19,89.0,79.8,72.0,73.0,70.3,66.0,95,75,49,0.00,40.00,13,8,25,0.00
2013-5-20,87.0,80.0,76.0,73.0,72.0,70.0,86,78,61,0.00,40.00,11,8,24,0.00
2013-5-21,89.0,80.1,74.0,74.0,72.2,70.0,92,78,55,0.00,40.00,13,8,28,0.00
2013-5-22,86.0,75.7,66.0,76.0,69.9,64.0,97,83,61,0.00,40.00,8,4,26,0.26
2013-5-23,90.0,78.3,70.0,76.0,71.9,69.0,98,83,54,0.00,40.00,8,4,16,0.01
2013-5-24,91.0,76.8,70.0,77.0,71.6,69.0,98,86,58,0.00,40.00,6,3,12,0.00
2013-5-25,89.0,76.6,69.0,74.0,70.5,67.0,98,83,55,0.00,40.00,9,4,20,0.00
2013-5-26,89.0,76.9,68.0,73.0,68.8,67.0,96,78,48,0.00,40.00,9,5,20,0.00
2013-5-27,88.0,76.6,67.0,72.0,67.9,66.0,98,78,49,0.00,40.00,11,6,20,0.00
2013-5-28,88.0,77.5,69.0,72.0,68.4,65.0,97,76,51,0.00,40.00,11,7,24,0.00
2013-5-29,85.0,77.4,70.0,72.0,70.3,68.0,97,80,56,0.00,40.00,11,7,22,0.00
2013-5-30,88.0,78.7,71.0,75.0,72.1,70.0,98,82,60,0.00,40.00,13,7,25,0.01
2013-5-31,90.0,81.1,75.0,77.0,74.4,73.0,97,81,62,0.00,40.00,11,7,22,0.04
2013-6-1,91.0,82.2,76.0,76.0,73.9,72.0,95,78,56,0.00,40.00,10,7,22,0.02
2013-6-2,85.0,74.6,69.0,74.0,70.5,67.0,97,88,64,0.00,40.00,8,5,20,0.86
2013-6-3,90.0,76.9,66.0,72.0,67.9,65.0,98,77,46,0.00,40.00,7,4,12,0.03
2013-6-4,94.0,79.6,68.0,74.0,69.1,66.0,97,74,42,0.00,40.00,5,4,12,0.00
2013-6-5,96.0,82.0,70.0,78.0,72.6,69.0,97,76,46,0.00,40.00,7,4,12,0.00
2013-6-6,88.0,75.8,68.0,77.0,71.9,67.0,97,89,62,0.00,40.00,14,4,27,0.67
2013-6-7,87.0,73.0,66.0,69.0,66.1,60.0,98,82,47,0.00,40.00,6,4,15,0.66
2013-6-8,89.0,76.5,65.0,72.0,68.2,64.0,97,78,51,0.00,40.00,5,4,14,0.00
2013-6-9,90.0,72.9,68.0,75.0,69.7,63.0,97,91,58,0.00,40.00,7,3,29,0.39
2013-6-10,92.0,80.1,66.0,78.0,71.9,65.0,98,79,50,0.00,40.00,9,4,17,0.06
2013-6-11,94.0,81.1,70.0,78.0,73.4,69.0,98,80,54,0.00,40.00,8,4,15,0.00
2013-6-12,96.0,82.3,72.0,79.0,73.8,71.0,97,78,51,0.00,40.00,7,4,12,0.00
2013-6-13,97.0,83.2,72.0,79.0,74.2,71.0,98,78,48,0.00,40.00,7,3,12,0.00
2013-6-14,97.0,84.5,70.0,78.0,75.0,65.0,97,76,50,0.00,40.00,7,4,35,1.66
2013-6-15,95.0,80.6,70.0,79.0,73.9,69.0,98,82,52,0.00,40.00,7,3,35,1.67
2013-6-16,96.0,82.5,72.0,77.0,72.9,69.0,97,76,46,0.00,40.00,6,4,13,0.00
2013-6-17,95.0,81.7,72.0,77.0,72.3,69.0,97,76,44,0.00,40.00,8,5,15,0.00
2013-6-18,92.0,79.4,72.0,77.0,73.2,70.0,97,83,52,0.00,40.00,9,5,31,0.49
2013-6-19,86.0,76.0,72.0,78.0,73.3,70.0,98,92,70,0.00,40.00,7,3,11,2.16
2013-6-20,94.0,79.7,72.0,79.0,73.3,71.0,98,84,49,0.00,40.00,5,4,11,0.46
2013-6-22,93.0,85.9,76.0,79.0,74.4,68.0,97,70,55,0.00,40.00,7,4,15,0.00
2013-6-23,92.0,80.6,72.0,77.0,73.1,71.0,97,80,52,0.00,40.00,8,5,16,0.00
2013-6-24,91.0,80.0,73.0,79.0,74.3,72.0,97,84,58,0.00,40.00,8,5,18,0.04
2013-6-25,93.0,81.8,72.0,77.0,73.4,71.0,97,78,53,0.00,40.00,8,5,15,0.04
2013-6-26,96.0,82.2,72.0,77.0,72.9,71.0,97,76,47,0.00,40.00,7,4,14,0.00
2013-6-27,95.0,82.0,71.0,78.0,73.4,70.0,97,78,46,0.00,40.00,6,4,17,0.00
2013-6-28,97.0,83.9,74.0,77.0,74.3,72.0,96,76,46,0.00,40.00,9,5,16,0.00
2013-6-29,100.0,86.1,76.0,77.0,71.9,67.0,89,66,38,0.00,40.00,9,6,16,0.00
2013-6-30,95.0,81.3,67.0,70.0,64.0,57.0,93,60,29,0.00,40.00,8,5,21,0.00
2013-7-1,89.0,76.6,66.0,70.0,64.2,61.0,88,68,41,0.00,40.00,6,4,14,0.00
2013-7-2,92.0,77.7,65.0,69.0,64.1,60.0,91,67,37,0.00,40.00,6,4,16,0.00
2013-7-3,94.0,78.2,65.0,69.0,65.1,62.0,93,68,35,0.00,40.00,6,4,12,0.00
2013-7-4,93.0,78.5,66.0,70.0,66.1,63.0,93,69,38,0.00,40.00,5,4,12,0.00
2013-7-5,97.0,81.3,68.0,73.0,66.3,60.0,90,65,31,0.00,40.00,7,5,18,0.00
2013-7-6,94.0,78.5,70.0,74.0,70.4,66.0,96,79,42,0.00,40.00,7,4,15,0.00
2013-7-7,88.0,77.9,74.0,79.0,73.6,71.0,96,87,65,0.00,40.00,10,5,23,0.04
2013-7-8,87.0,77.9,72.0,78.0,74.1,71.0,97,89,65,0.00,40.00,7,4,16,0.45
2013-7-9,96.0,82.2,72.0,78.0,73.6,71.0,97,78,47,0.00,40.00,8,4,16,0.01
2013-7-10,96.0,82.1,73.0,78.0,69.7,-99.9,97,72,44,0.00,40.00,7,4,17,0.00
2013-7-11,95.0,82.1,74.0,79.0,74.3,72.0,96,79,55,0.00,40.00,8,4,15,0.00
2013-7-12,99.0,83.9,75.0,76.0,73.4,70.0,95,74,41,0.00,40.00,7,4,12,0.00
2013-7-13,99.0,82.4,72.0,73.0,65.7,49.0,95,64,19,0.00,40.00,6,4,13,0.00
2013-7-14,89.0,78.8,69.0,73.0,69.0,65.0,93,73,50,0.00,40.00,5,3,10,0.00
2013-7-15,91.0,77.6,74.0,76.0,72.9,70.0,97,86,53,0.00,40.00,8,4,24,0.05
2013-7-16,90.0,78.5,75.0,77.0,75.0,65.0,96,90,61,0.00,40.00,8,4,18,0.07
2013-7-17,89.0,76.1,73.0,76.0,71.8,67.0,97,88,49,0.00,40.00,8,4,26,0.00
2013-7-18,96.0,79.0,70.0,78.0,71.0,68.0,96,80,48,0.00,40.00,8,4,27,0.48
2013-7-19,89.0,74.6,70.0,77.0,71.2,69.0,97,90,59,0.00,40.00,12,3,25,1.23
2013-7-20,91.0,75.4,69.0,78.0,68.7,-99.9,98,84,51,0.00,40.00,6,3,18,0.97
2013-7-21,89.0,77.6,72.0,77.0,73.1,71.0,97,87,63,0.00,40.00,10,4,22,0.02
2013-7-22,94.0,81.2,72.0,80.0,74.2,70.0,97,81,51,0.00,40.00,8,5,21,0.10
2013-7-23,94.0,83.0,74.0,80.0,74.5,73.0,97,78,52,0.00,40.00,8,5,19,0.02
2013-7-24,93.0,81.6,72.0,77.0,73.7,71.0,97,79,52,0.00,40.00,8,4,17,0.00
2013-7-25,97.0,83.6,74.0,78.0,74.6,70.0,95,76,53,0.00,40.00,7,4,14,0.00
2013-7-26,94.0,83.0,75.0,78.0,74.1,70.0,96,77,48,0.00,40.00,8,4,13,0.00
2013-7-27,88.0,80.7,74.0,79.0,75.3,71.0,94,84,70,0.00,40.00,10,5,25,0.56
2013-7-28,90.0,77.3,71.0,77.0,72.7,69.0,96,86,63,0.00,40.00,6,4,21,0.13
2013-7-29,95.0,79.9,73.0,78.0,72.1,67.0,97,80,42,0.00,40.00,8,4,15,0.00
2013-7-30,94.0,77.5,69.0,77.0,70.9,68.0,97,83,44,0.00,40.00,8,4,13,0.00
2013-7-31,96.0,80.6,70.0,77.0,72.1,69.0,97,78,42,0.00,40.00,6,4,14,0.00
2013-8-1,98.0,84.9,74.0,77.0,74.0,71.0,96,74,43,0.00,40.00,6,4,11,0.00
2013-8-2,98.0,84.8,74.0,77.0,73.9,72.0,96,73,45,0.00,40.00,6,4,12,0.00
2013-8-3,97.0,84.1,73.0,77.0,73.1,70.0,96,73,43,0.00,40.00,7,4,15,0.00
2013-8-4,96.0,83.1,74.0,80.0,74.3,69.0,96,78,42,0.00,40.00,8,3,22,0.00
2013-8-5,98.0,84.2,74.0,78.0,73.4,67.0,96,74,38,0.00,40.00,8,5,15,0.00
2013-8-6,98.0,83.7,74.0,77.0,73.8,68.0,96,76,41,0.00,40.00,9,5,16,0.00
2013-8-7,99.0,85.1,76.0,78.0,73.8,66.0,97,73,35,0.00,40.00,9,5,20,0.00
2013-8-8,99.0,83.0,74.0,77.0,72.1,64.0,97,74,32,0.00,40.00,8,4,16,0.00
2013-8-9,101.0,84.2,71.0,78.0,71.2,68.0,96,70,35,0.00,40.00,6,3,18,0.00
2013-8-10,90.0,78.5,74.0,79.0,74.4,72.0,97,88,65,0.00,40.00,8,4,29,0.38
2013-8-11,92.0,78.7,72.0,82.0,74.4,71.0,97,88,59,0.00,40.00,9,3,26,0.06
2013-8-12,97.0,82.6,73.0,79.0,73.8,70.0,97,78,42,0.00,40.00,9,4,17,0.01
2013-8-13,99.0,84.4,76.0,78.0,71.4,-99.9,96,71,40,0.00,40.00,10,5,18,0.00
2013-8-14,94.0,80.0,74.0,77.0,74.4,70.0,97,85,52,0.00,40.00,9,4,22,1.17
2013-8-15,89.0,70.7,69.0,76.0,59.3,-99.9,97,82,57,0.00,40.00,7,4,12,0.83
2013-8-16,94.0,75.8,67.0,72.0,63.4,-99.9,95,73,43,0.00,40.00,7,4,13,0.01
2013-8-17,92.0,76.4,67.0,69.0,62.4,-99.9,92,67,38,0.00,40.00,9,6,16,0.00
2013-8-18,94.0,78.9,69.0,73.0,67.5,64.0,96,72,38,0.00,40.00,8,4,14,0.00
2013-8-19,95.0,73.2,67.0,73.0,56.3,-99.9,94,69,31,0.00,40.00,7,4,14,0.00
2013-8-20,87.0,74.8,68.0,75.0,67.7,-99.9,95,84,59,0.00,40.00,6,4,15,0.00
2013-8-21,96.0,80.0,71.0,77.0,70.7,67.0,96,78,41,0.00,40.00,6,4,26,0.00
2013-8-22,97.0,81.1,71.0,78.0,72.0,67.0,96,77,39,0.00,40.00,6,4,12,0.00
2013-8-23,98.0,83.0,72.0,78.0,72.6,68.0,96,74,42,0.00,40.00,6,3,15,0.00
2013-8-24,95.0,79.9,72.0,75.0,67.8,-99.9,96,73,39,0.00,40.00,9,5,20,0.00
2013-8-25,89.0,78.3,73.0,76.0,72.1,70.0,92,82,55,0.00,40.00,9,6,21,0.01
2013-8-26,84.0,74.6,72.0,74.0,72.2,70.0,96,93,66,0.00,40.00,9,4,16,0.53
2013-8-27,89.0,75.2,70.0,76.0,71.1,69.0,97,89,52,0.00,40.00,5,4,10,0.37
2013-8-28,96.0,88.6,78.0,73.0,70.2,67.0,86,58,41,0.00,40.00,6,4,11,0.00
2013-8-29,96.0,83.7,73.0,75.0,71.7,67.0,96,71,39,0.00,40.00,6,4,14,0.00
2013-8-30,97.0,83.0,72.0,76.0,72.3,68.0,96,74,41,0.00,40.00,7,4,13,0.00
2013-8-31,97.0,80.7,71.0,77.0,67.7,-99.9,96,71,39,0.00,40.00,6,3,12,0.00
2013-9-1,98.0,82.4,70.0,75.0,70.2,66.0,95,71,38,0.00,40.00,7,4,18,0.00
2013-9-2,99.0,83.5,71.0,79.0,71.2,63.0,96,71,33,0.00,40.00,8,4,16,0.00
2013-9-3,98.0,83.3,76.0,77.0,72.3,65.0,93,73,36,0.00,40.00,9,4,17,0.00
2013-9-4,98.0,80.8,71.0,77.0,71.5,69.0,95,76,42,0.00,40.00,7,3,20,0.00
2013-9-5,96.0,78.6,72.0,76.0,72.0,67.0,96,82,39,0.00,40.00,6,3,21,0.00
2013-9-6,95.0,79.6,71.0,76.0,72.0,69.0,96,80,43,0.00,40.00,8,3,15,0.00
2013-9-7,90.0,75.7,71.0,76.0,69.8,-99.9,96,86,59,0.00,40.00,13,4,22,0.14
2013-9-8,95.0,79.7,68.0,78.0,69.1,63.0,97,75,36,0.00,40.00,7,4,14,0.14
2013-9-9,93.0,79.9,71.0,77.0,70.3,65.0,96,76,42,0.00,40.00,9,5,18,0.00
2013-9-10,95.0,81.2,70.0,75.0,69.1,65.0,96,71,38,0.00,40.00,8,4,17,0.00
2013-9-11,95.0,78.7,70.0,75.0,69.2,62.0,95,76,37,0.00,40.00,7,4,12,0.00
2013-9-12,98.0,82.1,70.0,74.0,66.5,57.0,95,66,26,0.00,40.00,7,4,15,0.00
2013-9-13,99.0,82.2,70.0,74.0,67.9,61.0,94,68,32,0.00,40.00,9,4,16,0.11
2013-9-14,96.0,78.5,70.0,75.0,68.2,-99.9,97,76,39,0.00,40.00,8,5,14,0.12
2013-9-15,94.0,77.5,69.0,72.0,69.6,65.0,93,79,47,0.00,40.00,6,4,17,0.00
2013-9-16,96.0,79.9,71.0,73.0,69.0,61.0,95,74,34,0.00,40.00,6,4,13,0.00
2013-9-17,96.0,82.1,71.0,75.0,69.6,62.0,95,71,33,0.00,40.00,7,4,16,0.00
2013-9-18,80.0,75.2,72.0,72.0,71.3,70.0,94,88,75,0.00,40.00,5,3,8,0.00
2013-9-19,92.0,78.6,73.0,78.0,73.2,70.0,96,85,49,0.00,40.00,7,4,22,0.73
2013-9-20,77.0,75.2,72.0,75.0,73.9,71.0,97,96,90,0.00,40.00,7,4,21,3.24
2013-9-21,76.0,71.4,68.0,72.0,67.4,-99.9,97,90,80,0.00,40.00,11,5,20,1.74
2013-9-22,86.0,70.4,61.0,67.0,58.4,51.0,95,70,32,0.00,40.00,10,7,17,0.01
2013-9-23,91.0,74.6,62.0,74.0,64.7,56.0,87,73,49,0.00,40.00,7,4,12,0.00
2013-9-24,90.0,79.3,71.0,80.0,73.5,69.0,96,84,56,0.00,40.00,7,4,13,0.17
2013-9-25,94.0,77.1,66.0,72.0,61.1,45.0,96,67,19,0.00,40.00,6,4,13,0.08
2013-9-26,93.0,74.7,61.0,72.0,62.9,59.0,95,71,33,0.00,40.00,5,3,10,0.00
2013-9-27,91.0,76.3,65.0,74.0,66.2,63.0,96,75,40,0.00,40.00,8,4,14,0.00
2013-9-28,89.0,75.9,68.0,74.0,67.3,-99.9,95,79,52,0.00,40.00,8,5,17,0.00
2013-9-29,81.0,74.7,71.0,75.0,72.0,70.0,96,91,80,0.00,40.00,6,3,24,0.88
2013-9-30,80.0,72.1,70.0,72.0,70.0,69.0,97,94,71,0.00,40.00,7,4,15,5.22
2013-10-1,78.0,75.1,73.0,73.0,72.4,72.0,96,92,83,0.00,40.00,4,4,12,0.04
2013-10-2,87.0,76.7,71.0,77.0,72.8,70.0,97,89,63,0.00,40.00,6,4,14,0.03
2013-10-3,88.0,76.7,70.0,76.0,72.2,69.0,97,87,61,0.00,40.00,5,3,13,0.03
2013-10-4,87.0,75.7,70.0,79.0,73.0,69.0,97,92,76,0.00,40.00,6,3,17,0.27
2013-10-5,88.0,79.0,73.0,77.0,74.3,72.0,97,87,66,0.00,40.00,7,3,12,0.01
2013-10-6,76.0,65.0,59.0,74.0,56.8,46.0,95,77,35,0.00,40.00,8,6,22,0.30
2013-10-7,80.0,63.1,52.0,56.0,51.0,48.0,89,68,37,0.00,40.00,7,5,15,0.00
2013-10-8,79.0,62.3,52.0,59.0,53.9,49.0,94,77,43,0.00,40.00,6,4,12,0.00
2013-10-9,82.0,65.0,53.0,62.0,55.8,52.0,96,76,40,0.00,40.00,4,4,10,0.00
2013-10-10,85.0,69.3,55.0,67.0,61.1,54.0,96,78,49,0.00,40.00,5,3,10,0.00
2013-10-11,88.0,71.8,61.0,71.0,65.6,60.0,96,83,49,0.00,40.00,6,4,13,0.00
2013-10-12,90.0,76.1,70.0,76.0,69.2,-99.9,96,84,55,0.00,40.00,7,4,17,0.87
2013-10-13,80.0,72.5,68.0,73.0,69.9,67.0,97,92,73,0.00,40.00,8,4,14,0.87
2013-10-14,83.0,74.6,70.0,73.0,70.7,69.0,97,88,63,0.00,40.00,5,4,10,0.00
2013-10-15,87.0,74.7,69.0,75.0,69.8,67.0,96,86,57,0.00,40.00,7,3,16,0.02
2013-10-16,82.0,73.2,69.0,73.0,69.2,66.0,97,88,62,0.00,40.00,7,4,15,0.02
2013-10-17,75.0,64.4,56.0,66.0,60.0,52.0,96,87,54,0.00,40.00,7,4,13,0.05
2013-10-18,70.0,59.9,52.0,60.0,55.8,50.0,95,87,68,0.00,40.00,6,4,13,0.02
2013-10-19,71.0,60.0,51.0,60.0,53.8,-99.9,96,84,55,0.00,40.00,9,5,19,0.36
2013-10-20,73.0,56.3,44.0,56.0,48.5,43.0,96,79,40,0.00,40.00,7,4,11,0.01
2013-10-21,73.0,61.1,51.0,66.0,57.6,49.0,95,89,76,0.00,40.00,6,4,14,0.00
2013-10-22,72.0,62.3,53.0,64.0,58.8,51.0,96,89,54,0.00,40.00,8,4,15,0.00
2013-10-23,81.0,60.7,48.0,59.0,51.0,47.0,96,76,31,0.00,40.00,5,4,9,0.00
2013-10-24,83.0,63.6,49.0,61.0,53.6,48.0,96,75,36,0.00,40.00,7,4,12,0.00
2013-10-25,73.0,59.6,52.0,56.0,51.0,45.0,94,76,44,0.00,40.00,9,6,20,0.00
2013-10-26,78.0,58.8,45.0,58.0,48.4,-99.9,93,74,43,0.00,40.00,6,5,12,0.00
2013-10-27,78.0,65.3,58.0,66.0,61.6,56.0,96,88,63,0.00,40.00,9,4,12,0.05
2013-10-28,83.0,67.4,57.0,68.0,60.8,-99.9,96,85,58,0.00,40.00,5,3,9,0.01
2013-10-29,81.0,70.3,63.0,71.0,65.4,62.0,97,86,59,0.00,40.00,9,5,17,0.00
2013-10-30,74.0,69.4,66.0,72.0,68.1,65.0,97,95,93,0.00,40.00,12,5,27,1.81
2013-10-31,76.0,70.8,65.0,74.0,69.1,64.0,96,94,91,0.00,40.00,15,7,31,4.32
2013-11-1,78.0,64.0,56.0,64.0,57.9,54.0,97,83,43,0.00,40.00,5,2,11,0.03
2013-11-2,72.0,59.2,49.0,59.0,46.9,-99.9,96,71,28,0.00,40.00,11,6,24,0.24
2013-11-3,67.0,53.0,43.0,49.0,44.3,41.0,95,76,39,0.00,40.00,7,5,14,0.01
2013-11-4,76.0,60.0,46.0,62.0,53.5,44.0,95,81,56,0.00,40.00,8,5,16,0.00
2013-11-5,79.0,68.7,61.0,68.0,63.8,59.0,95,85,65,0.00,40.00,9,6,18,0.00
2013-11-6,80.0,68.5,53.0,71.0,65.2,50.0,95,89,72,0.00,40.00,9,6,26,0.67
2013-11-7,65.0,53.1,46.0,50.0,43.5,40.0,88,72,40,0.00,40.00,13,8,25,0.66
2013-11-8,67.0,53.3,44.0,48.0,43.7,39.0,90,73,36,0.00,40.00,7,4,14,0.00
2013-11-9,67.0,55.4,48.0,52.0,46.3,-99.9,93,76,46,0.00,40.00,5,4,11,0.00
2013-11-10,74.0,59.3,48.0,56.0,51.7,45.0,92,78,53,0.00,40.00,6,5,11,0.00
2013-11-11,76.0,59.4,49.0,57.0,51.8,48.0,95,79,45,0.00,40.00,6,4,9,0.00
2013-11-12,71.0,53.8,41.0,58.0,47.8,30.0,96,81,57,0.00,40.00,13,8,26,0.00
2013-11-13,56.0,40.6,31.0,34.0,28.1,24.0,80,64,30,0.00,40.00,9,6,20,0.00
2013-11-14,60.0,42.0,30.0,43.0,34.4,27.0,92,77,35,0.00,40.00,6,4,11,0.00
2013-11-15,78.0,59.8,45.0,62.0,53.9,43.0,95,82,56,0.00,40.00,5,4,11,0.00
2013-11-16,77.0,67.5,57.0,71.0,63.2,-99.9,97,90,77,0.00,40.00,11,6,22,0.00
2013-11-17,85.0,75.5,72.0,74.0,71.5,69.0,96,89,66,0.00,40.00,10,6,21,0.18
2013-11-18,73.0,67.2,56.0,72.0,59.1,44.0,96,77,50,0.00,40.00,8,4,18,0.30
2013-11-19,68.0,55.3,46.0,45.0,42.9,41.0,87,65,39,0.00,40.00,9,6,19,0.30
2013-11-20,73.0,54.0,40.0,51.0,43.0,33.0,86,69,39,0.00,40.00,6,4,11,0.00
2013-11-21,75.0,65.9,54.0,70.0,62.2,50.0,94,88,78,0.00,40.00,9,5,17,0.04
2013-11-22,72.0,66.3,53.0,70.0,64.4,52.0,95,94,90,0.00,40.00,8,5,16,0.04
2013-11-23,53.0,48.2,42.0,52.0,44.4,-99.9,96,90,84,0.00,40.00,12,9,24,0.05
2013-11-24,50.0,42.6,37.0,38.0,30.5,25.0,90,64,41,0.00,40.00,11,8,22,0.06
2013-11-25,41.0,38.6,36.0,40.0,36.9,34.0,95,93,88,0.00,40.00,9,6,20,2.46
2013-11-26,41.0,39.8,38.0,40.0,38.3,37.0,95,94,93,0.00,40.00,9,6,19,2.38
2013-11-27,51.0,38.1,31.0,38.0,31.9,29.0,95,81,42,0.00,40.00,8,5,18,0.06
2013-11-28,51.0,36.4,29.0,34.0,29.7,27.0,94,80,41,0.00,40.00,5,3,8,0.00
2013-11-29,62.0,39.8,28.0,39.0,30.9,27.0,94,77,27,0.00,40.00,5,4,9,0.00
2013-11-30,69.0,46.2,32.0,47.0,37.3,-99.9,94,77,41,0.00,40.00,6,4,9,0.00
2013-12-1,68.0,55.0,42.0,56.0,49.6,40.0,95,84,57,0.00,40.00,7,4,13,0.00
2013-12-2,78.0,65.2,59.0,62.0,59.3,56.0,96,83,52,0.00,40.00,9,5,18,0.00
2013-12-3,80.0,68.3,60.0,67.0,63.1,58.0,96,84,58,0.00,40.00,9,6,19,0.00
2013-12-4,79.0,72.0,69.0,70.0,68.1,66.0,92,88,70,0.00,40.00,8,6,20,0.00
2013-12-5,78.0,66.1,46.0,72.0,62.7,44.0,94,89,78,0.00,40.00,9,6,17,0.00
2013-12-6,47.0,42.4,39.0,46.0,40.3,34.0,95,92,82,0.00,40.00,10,7,25,0.11
2013-12-7,40.0,35.7,34.0,35.0,29.2,-99.9,85,80,76,0.00,40.00,11,7,21,0.01
2013-12-8,45.0,40.0,35.0,42.0,35.0,30.0,93,82,73,0.00,40.00,5,3,11,0.00
2013-12-9,44.0,42.5,39.0,43.0,41.3,38.0,99,96,92,0.00,40.00,9,5,15,0.07
2013-12-10,49.0,39.8,33.0,38.0,35.0,32.0,98,84,60,0.00,40.00,9,6,18,0.05
2013-12-11,50.0,40.2,31.0,42.0,35.7,31.0,99,85,63,0.00,40.00,7,4,12,0.01
2013-12-12,56.0,39.9,33.0,38.0,34.0,32.0,97,82,42,0.00,40.00,7,5,14,0.00
2013-12-13,58.0,45.9,34.0,58.0,41.6,31.0,100,86,55,0.00,40.00,6,4,12,0.14
2013-12-14,62.0,52.3,43.0,62.0,48.2,-99.9,100,89,75,0.00,40.00,12,7,23,0.23
2013-12-15,57.0,40.8,32.0,37.0,34.1,30.0,98,79,44,0.00,40.00,10,5,21,0.01
2013-12-16,64.0,41.5,28.0,41.0,34.1,28.0,99,81,29,0.00,40.00,6,3,10,0.00
2013-12-17,71.0,44.6,31.0,48.0,38.8,31.0,100,85,34,0.00,40.00,6,3,10,0.00
2013-12-18,71.0,48.3,34.0,50.0,41.0,34.0,100,81,39,0.00,40.00,7,3,14,0.00
2013-12-19,71.0,58.7,46.0,65.0,55.3,44.0,99,90,65,0.00,40.00,11,6,21,0.05
2013-12-20,74.0,70.6,66.0,70.0,68.3,65.0,97,92,87,0.00,40.00,9,7,21,0.05
2013-12-21,74.0,67.2,57.0,72.0,64.6,-99.9,100,95,90,0.00,40.00,14,8,42,0.95
2013-12-22,61.0,53.2,37.0,61.0,51.3,32.0,100,93,79,0.00,40.00,9,3,21,0.04
2013-12-23,53.0,39.8,34.0,34.0,32.3,30.0,95,77,43,0.00,40.00,9,6,21,0.02
2013-12-24,57.0,38.2,28.0,36.0,31.9,28.0,99,82,37,0.00,40.00,6,4,11,0.00
2013-12-25,60.0,42.6,30.0,43.0,35.2,30.0,99,79,37,0.00,40.00,5,3,11,0.00
2013-12-26,63.0,48.3,40.0,45.0,41.2,37.0,99,80,41,0.00,40.00,5,3,9,0.00
2013-12-27,53.0,46.3,42.0,43.0,40.2,38.0,92,80,59,0.00,40.00,7,4,10,0.00
2013-12-28,56.0,45.7,40.0,43.0,37.6,-99.9,98,77,50,0.00,40.00,5,3,9,0.00
2013-12-29,65.0,48.0,33.0,46.0,39.9,33.0,100,78,36,0.00,40.00,4,3,7,0.00
2013-12-30,48.0,44.4,39.0,46.0,38.7,36.0,94,81,68,0.00,40.00,7,5,14,0.00
2013-12-31,49.0,42.0,38.0,40.0,37.2,34.0,92,83,66,0.00,40.00,7,4,11,0.00
2014-1-1,61.0,49.7,42.0,54.0,46.1,39.0,96,88,73,0.00,40.00,6,3,12,0.00
2014-1-2,56.0,45.9,33.0,56.0,37.6,25.0,100,75,35,0.00,40.00,13,7,25,0.06